Vitalijs Ciganovs

Chefscout - Metta/LU
22 Feb 2028
Dienstag
Verarbeitung

Persönlichkeit

Anpassungsfähigkeit (12) Ehrgeiz (11) Kontroverse (15) Loyalität (2) Druck (13) Professionalität (16) Fairness (19) Temperament (16)

Profil

Trainerstil Demokratisch
Lizenz Nationale B
Entschlossenheit 6
Menschenführung 6
Motivation 2
Disziplin 6
Arbeitszufriedenheit
100%
Ermüdung
0%
Rolle Chefscout
Gehalt 22.2K p/W
Vertrag 14.03.2030

Leistung

Verhalten Gut
Trainingseffektivität
26%
Spielerentwicklung
30%
Verletzungsprävention
25%
Taktische Umsetzung
40%

Letzte Ereignisse

Nahm an einer Scouting-Besprechung teil jetzt
Nahm an einer Scouting-Besprechung teil jetzt
Nahm an einer Scouting-Besprechung teil 7T her
Nahm an einer Scouting-Besprechung teil 7T her
Nahm an einer Scouting-Besprechung teil 7T her
Nahm an einer Scouting-Besprechung teil 7T her
Nahm an einer Scouting-Besprechung teil 14T her
Nahm an einer Scouting-Besprechung teil 14T her

Aktuell beobachtet

149
Spieler Verein Status Fähigkeit Vertrauen Beobachtet Zuletzt beobachtet Letzte Stimme
Maximiliano Rueda Patronato Aktiv 130 / 131 40% 1 30.12.2027 -
Umar Ada Nasarawa United Aktiv 101 / 84 40% 1 30.12.2027 -
Gastón Moreyra Almirante Brown Aktiv 131 / 133 40% 1 29.12.2027 -
David Veliz Güemes Aktiv 93 / 130 40% 1 29.12.2027 -
Duvan Rangel La Equidad Aktiv 125 / 136 40% 1 28.12.2027 Mehr Infos nötig
Augusto Berrondo Tristán Suárez Aktiv 97 / 121 40% 1 28.12.2027 -
Milton Cantero Talleres Aktiv 115 / 95 40% 2 25.12.2027 -
Anton Lukashov Slavia Mozyr Aktiv 97 / 92 40% 1 25.12.2027 -
Enzo Trinidad Colegiales Aktiv 101 / 98 40% 2 21.12.2027 -
Aminu Mohammed Kano Pillars Aktiv 104 / 102 40% 1 20.12.2027 -
Okardi Inikurogha Bayelsa United Aktiv 93 / 75 40% 1 20.12.2027 -
Valentín Serrano Arsenal Aktiv 130 / 102 40% 1 18.12.2027 -
Martín García Atlanta Aktiv 99 / 108 40% 1 18.12.2027 -
Iñaki Larthirigoyen San Telmo Aktiv 102 / 139 40% 1 17.12.2027 -
Franco Benítez Temperley Aktiv 99 / 91 40% 1 17.12.2027 -
Georgy Melkadze Akhmat Grozny Aktiv 117 / 122 40% 1 15.12.2027 -
Rustam Khalnazarov Rostov Aktiv 98 / 97 40% 1 10.12.2027 -
Enzo Hoyos Ferro Carril Oeste Aktiv 118 / 133 40% 1 10.12.2027 -
Gerónimo Tomasetti Temperley Aktiv 95 / 105 40% 1 09.12.2027 -
Kirill Moiseev Rostov Aktiv 106 / 89 40% 1 09.12.2027 -
Suleiman Nasiru Ikorodu City Aktiv 73 / 93 40% 1 06.12.2027 -
Emanuel Iñíguez Morón Aktiv 105 / 125 40% 1 06.12.2027 Mehr Infos nötig
Arturs Vanins Daugavpils Aktiv 83 / 86 30% 1 / 1m 21.07.2027 -
Daniil Kondrakov KDV Tomsk Aktiv 86 / 79 40% 4 31.05.2027 -
Alexandr Dolgov Amkar Aktiv 87 / 91 40% 2 30.05.2027 Mehr Infos nötig
Lorenzo De Leo Renate Aktiv 88 / 107 40% 1 29.05.2027 -
Diego Gambale Audace Cerignola Aktiv 101 / 96 40% 1 29.05.2027 -
Eljon Toci Dolomiti Bellunesi Aktiv 83 / 107 40% 1 28.05.2027 -
Francesco Petito Dolomiti Bellunesi Aktiv 117 / 83 40% 1 28.05.2027 Mehr Infos nötig
Niccolò Corti Pergolettese Aktiv 79 / 99 40% 1 25.05.2027 -
Alexandr Khokhlachev Rotor Aktiv 83 / 103 40% 5 22.05.2027 -
Artem Ntumba Rubin Yalta Aktiv 89 / 85 40% 2 20.05.2027 -
Fortune Bassey Djoliba Aktiv 109 / 110 40% 2 20.05.2027 -
Arseny Vainer Nosta Aktiv 82 / 72 40% 1 16.05.2027 -
Mikhail Gainov Dinamo Stavropol Aktiv 83 / 93 40% 5 15.05.2027 -
Alexandr Shlenkin Dinamo Bryansk Aktiv 67 / 69 40% 6 11.05.2027 Ablehnen
Baba N'Diaye Chelyabinsk Aktiv 78 / 99 40% 3 11.05.2027 -
Damir Céter Hamrun Spartans Aktiv 90 / 92 40% 2 07.05.2027 -
Dmitry Kuptsov Spartak Tambov Aktiv 77 / 77 40% 2 05.05.2027 -
Nikita Rozhkov Dinamo Stavropol Aktiv 74 / 87 40% 3 05.05.2027 -
Vladislav Morozov Volgar Aktiv 93 / 100 40% 3 30.04.2027 -
Pedro Cejas Zabbar St. Patrick Aktiv 71 / 105 40% 1 30.04.2027 -
Jere Vrcić Birkirkara Aktiv 93 / 112 40% 3 26.04.2027 -
Timur Zhamaletdinov Arsenal Tula Aktiv 92 / 101 40% 2 26.04.2027 -
Kirill Bogdanets Volna Aktiv 83 / 83 40% 3 25.04.2027 -
Maxim Sergeev Spartak Tambov Aktiv 69 / 67 40% 3 23.04.2027 -
David Davidyan Rotor Aktiv 93 / 91 40% 2 23.04.2027 -
Anton Betyuzhnov Dinamo Vologda Aktiv 78 / 64 40% 3 22.04.2027 -
Bruno Gomes Valletta Aktiv 84 / 105 40% 1 21.04.2027 -
Vladislav Yakovlev Volga Aktiv 94 / 83 40% 1 18.04.2027 -
Sergey Serchenkov Kuban Holding Aktiv 64 / 80 40% 1 17.04.2027 -
Kamran Aliev SKA Khabarovsk Aktiv 110 / 88 40% 7 16.04.2027 -
Denis Rubanov Dinamo Stavropol Aktiv 78 / 77 40% 3 16.04.2027 -
Diamanka Senghor Mosta Aktiv 88 / 111 40% 3 15.04.2027 -
Matvey Ivakhnov Mashuk Aktiv 66 / 77 40% 1 15.04.2027 -
Moussakoye Diallo Stade Malien Aktiv 113 / 90 40% 1 14.04.2027 -
Artem Stepanovich Sevastopol Aktiv 94 / 92 40% 2 11.04.2027 -
Selasie Bakai US Forces Armees Aktiv 65 / 87 40% 1 11.04.2027 -
Maxim Chikanchi Sibir Aktiv 100 / 79 40% 2 08.04.2027 -
Banou Cissé Real Bamako Aktiv 115 / 87 40% 3 07.04.2027 -
Bruno Melnis Liepaja Aktiv 91 / 94 52% 1 / 1m 07.04.2027 -
Joel Yakubu Slovan Liberec Aktiv 94 / 99 52% 1 / 1m 07.04.2027 -
Danil Karpov KAMAZ Aktiv 86 / 89 40% 3 03.04.2027 -
Víctor Guzmán Sporting CP Aktiv 95 / 110 40% 2 28.03.2027 -
Ilja Azyavin Arsenal Tula Aktiv 100 / 90 40% 1 27.03.2027 -
Kenan Dervišagić Floriana Aktiv 109 / 81 40% 3 26.03.2027 Beobachten
Kirill Cheburakov Rostov Aktiv 85 / 73 40% 1 25.03.2027 -
Denis Mironov Shinnik Aktiv 96 / 97 40% 3 20.03.2027 -
Alexandr Saplinov Volga Aktiv 99 / 91 40% 3 18.03.2027 -
Daniil Konoplev Dinamo Bryansk Aktiv 80 / 82 40% 6 18.03.2027 -
Ekain Orobengoa Real Sociedad Aktiv 121 / 118 40% 1 13.03.2027 -
Albert Rusnak FK Senica Aktiv 88 / 97 40% 3 12.03.2027 -
Danila Yezhkov Dinamo Vologda Aktiv 86 / 75 40% 1 05.03.2027 -
Jacobo Alcalde SKA Khabarovsk Aktiv 98 / 101 40% 4 04.03.2027 -
Anderson Gutiérrez Chelyabinsk Aktiv 84 / 83 40% 1 02.03.2027 -
Ilja Stefanovich Leningradets Aktiv 88 / 102 40% 1 26.02.2027 -
Ivan Gulko KAMAZ Aktiv 98 / 98 40% 5 22.02.2027 -
Rashid Magomedov Neftekhimik Aktiv 88 / 101 40% 1 22.02.2027 Mehr Infos nötig
Nikita Pogrebnev Ryazan Aktiv 85 / 75 40% 1 20.02.2027 -
Aziz Gaziev Dinamo St Petersburg Aktiv 63 / 85 40% 2 19.02.2027 -
Aleksej Golijanin Sokol Aktiv 87 / 98 40% 1 18.02.2027 -
Vitaly Dunay (Karpenko) Chaika Aktiv 75 / 91 40% 3 12.02.2027 -
Razhab Magomedov Dinamo Makhachkala Aktiv 103 / 93 40% 2 08.02.2027 -
Ilja Safronov Rotor Aktiv 113 / 90 40% 3 06.02.2027 -
Alexandr Konev Salyut Aktiv 80 / 71 40% 1 05.02.2027 -
Giancarlo Mosta Aktiv 65 / 105 40% 1 05.02.2027 -
Yegor Ponomarev Tver Aktiv 73 / 75 40% 2 01.02.2027 -
Vladislav Agalakov Metallurg Aktiv 72 / 86 40% 1 18.01.2027 -
Andrey Okladnikov Yenisey Aktiv 83 / 77 40% 3 29.12.2026 -
Magomed Abakarov Rotor Aktiv 90 / 82 40% 2 29.12.2026 -
Maxim Kutovoy Salyut Aktiv 75 / 71 40% 3 28.12.2026 -
Andre Green AVS Aktiv 126 / 107 40% 2 27.12.2026 -
Gocha Gogrichiani Volna Aktiv 71 / 65 40% 1 27.12.2026 -
Anton Gurylev Pobeda Aktiv 70 / 77 40% 1 26.12.2026 -
Ilja Gruznov Khimik Aktiv 83 / 84 40% 3 25.12.2026 -
Bertrand Fourrier Ural Aktiv 104 / 95 40% 1 23.12.2026 -
Nikita Kuzin Kaluga Aktiv 90 / 97 40% 1 23.12.2026 -
Omar Popov Dinamo St Petersburg Aktiv 81 / 73 40% 2 22.12.2026 -
Magomed Nasibov Pobeda Aktiv 75 / 85 40% 2 20.12.2026 -
Tamaz Topuria Mashuk Aktiv 92 / 75 40% 2 20.12.2026 -
Denis Yakuba Dinamo Stavropol Aktiv 99 / 109 40% 1 15.12.2026 Mehr Infos nötig
Alexey Shulgin Spartak Tambov Aktiv 73 / 74 40% 1 13.12.2026 -
Nikita Yershov Kosmos Aktiv 73 / 81 40% 1 11.12.2026 -
Danil Polyakh Rubin Yalta Aktiv 73 / 86 40% 1 11.12.2026 -
Daniil Arsentjev Orel Aktiv 65 / 60 40% 1 10.12.2026 -
Ivan Kudryashov Astrakhan Aktiv 91 / 82 40% 1 10.12.2026 -
Magomednabi Yagjaev Nart Aktiv 75 / 83 40% 1 10.12.2026 -
Nikita Kireev Dinamo Vologda Aktiv 93 / 84 40% 1 09.12.2026 -
Ismail Dibirov Dinamo Kirov Aktiv 75 / 75 40% 1 08.12.2026 -
Franklin Sasere Birkirkara Aktiv 73 / 112 40% 1 04.12.2026 -
Pavel Popov Volna Aktiv 93 / 71 40% 2 01.12.2026 -
Danil Akhatov Ufa Aktiv 83 / 103 40% 1 01.12.2026 -
Daniil Agureev Amkar Aktiv 97 / 94 40% 3 30.11.2026 -
Oleg Smirnov Veles Aktiv 96 / 96 40% 1 29.11.2026 -
Leo Goglichidze Rodina Aktiv 105 / 118 40% 1 27.11.2026 -
Oleg Isaenko Arsenal Tula Aktiv 102 / 90 40% 1 27.11.2026 -
Danil Poluboyarinov Volgar Aktiv 91 / 100 40% 2 19.11.2026 -
Rassambek Akhmatov Rotor Aktiv 101 / 110 40% 1 19.11.2026 -
Batraz Gurtsiev Alania Aktiv 98 / 82 40% 1 18.11.2026 -
Daouda Natama Minsk Aktiv 99 / 103 40% 2 14.11.2026 -
Ildi Gruda Egnatia Rrogozhinë Aktiv 104 / 122 40% 1 11.11.2026 -
Surkhaikhan Abdullaev KAMAZ Aktiv 86 / 83 40% 1 11.11.2026 -
Mikhail Zabotkin Druzhba Aktiv 68 / 65 40% 1 06.11.2026 -
Vladislav Yatskevich BATE Aktiv 111 / 112 40% 1 04.11.2026 -
Sergey Iljin Kaluga Aktiv 84 / 89 40% 1 03.11.2026 -
Ilja Grischenko Kaluga Aktiv 75 / 82 40% 1 29.10.2026 -
Ivan Selemenev Mashuk Aktiv 86 / 73 40% 1 28.10.2026 -
Maksym Shevchenko Baranovichi Aktiv 84 / 92 40% 1 20.10.2026 -
Andrey Domotsev Mashuk Aktiv 72 / 79 40% 1 15.10.2026 -
Zakhar Tarasenko Veles Aktiv 92 / 95 40% 1 15.10.2026 -
Steven Alfred Torpedo-BelAZ Aktiv 94 / 92 40% 1 07.10.2026 -
Job Ochieng Real Sociedad Aktiv 104 / 109 40% 1 06.10.2026 -
Ilja Moseichuk Kuban Aktiv 82 / 104 40% 1 06.10.2026 -
Denis Faizullin Murom Aktiv 76 / 91 40% 1 05.10.2026 -
Grenik Petrosyan Torpedo-BelAZ Aktiv 79 / 95 40% 1 02.10.2026 -
Alexey Antilevskiy Slavia Mozyr Aktiv 103 / 103 40% 1 28.09.2026 -
Maxim Kravtsov Neman Aktiv 97 / 94 40% 1 28.09.2026 -
Tobías Ganduglia Independiente Rivadavia Aktiv 109 / 109 40% 1 26.09.2026 -
Nathan Ordaz Metalist Aktiv 118 / 101 40% 1 20.09.2026 -
Alexandr Butko Isloch Aktiv 88 / 89 40% 1 19.09.2026 -
Agustín Bianciotti Metropolitanos Aktiv 80 / 89 40% 1 12.09.2026 -
Macaulay Langstaff Millwall Aktiv 92 / 96 40% 1 11.09.2026 -
Leonard Chatelin Gweth Dinamo Minsk Aktiv 90 / 93 40% 1 11.09.2026 -
Ignacio Sabatini Gimnasia y Esgrima Aktiv 122 / 89 40% 1 08.09.2026 -
Vladislav Lozhkin Dinamo Brest Aktiv 91 / 94 40% 1 31.08.2026 -
Zakhar Chervyakov Vitebsk Aktiv 73 / 80 40% 1 31.08.2026 -
Alexis Dulón Huracán Aktiv 114 / 80 40% 1 19.08.2026 -
Mateo Seoane Gimnasia La Plata Aktiv 116 / 105 40% 1 10.08.2026 -
Mario García Racing Santander Aktiv 132 / 136 40% 1 10.08.2026 -